Flag for Germany Weather past 2 weeks in Cologne, North Rhine-Westphalia, Germany

Now
57 °F

Fog.


Feels Like: 57 °F
Forecast: 54 / 61 °F
Wind: 1 mph from Southeast

Location: Koeln / Bonn

Current Time: Sep 20, 2014 at 6:39:40 AM

Latest Report: Sep 20, 2014 at 6:20 AM


Visibility: N/A

Pressure: 29.92 "Hg

Humidity: 94%

Dew point: 55 °F

Location of CologneLocation

Historic Weather in Cologne — Graph

°F

Cologne temperature yesterday

Maximum temperature yesterday: 77 °F (at 2:50 PM)
Minimum temperature yesterday: 61 °F (at 5:20 AM)
Average temperature yesterday: 67 °F

Past Weeks' High & Low Weather Summary

 TemperatureHumidityPressure
High77 °F (Sep 5, 3:50 PM)100% (Sep 6, 8:20 AM)30.24 "Hg (Sep 6, 8:20 AM)
Low45 °F (Sep 12, 3:20 AM)44% (Sep 17, 4:20 PM)29.83 "Hg (Sep 18, 3:50 PM)
Average62 °F81%30.02 "Hg
* Reported Sep 5 5:20 AM — Sep 20 5:20 AM, Cologne, Weather by CustomWeather, © 2014

Note: Actual official high and low records may vary slightly from our data, if they occured in-between our weather recording intervals... More about our weather records

Advertising

Cologne weather history for previous 24 hours

 ConditionsComfort  
Time TempWeatherWind HumidityBarometerVisibility
5:20 AM
Sep 20
57 °FFog.5 mph94%29.92 "HgN/A
4:50 AM59 °FFog.2 mph94%29.92 "HgN/A
4:20 AM57 °FFog.2 mph94%29.92 "HgN/A
3:50 AM61 °FFog.3 mph94%29.92 "HgN/A
3:20 AM57 °FFog.5 mph94%29.92 "HgN/A
2:50 AM61 °FFog.2 mph94%29.92 "HgN/A
2:20 AM63 °FFog.3 mph94%29.92 "HgN/A
1:50 AM63 °FFog.2 mph94%29.92 "HgN/A
1:20 AM63 °FFog.2 mph94%29.92 "HgN/A
12:50 AM63 °FFog.2 mph100%29.92 "HgN/A
12:20 AM63 °FFog.2 mph100%29.92 "HgN/A
11:50 PM
Sep 19
61 °FCool.2 mph100%29.92 "HgN/A
11:20 PM63 °FFog.5 mph94%29.92 "HgN/A
10:50 PM63 °FFog.2 mph94%29.92 "HgN/A
10:20 PM63 °FFog.2 mph94%29.92 "HgN/A
9:50 PM64 °FFog.3 mph94%29.92 "HgN/A
9:20 PM63 °FFog.3 mph94%29.92 "HgN/A
8:50 PM64 °FFog.6 mph94%29.92 "HgN/A
8:20 PM66 °FFog.3 mph94%29.89 "HgN/A
7:50 PM68 °FFog.1 mph88%29.89 "HgN/A
7:20 PM68 °FPartly sunny.2 mph88%29.89 "HgN/A
6:50 PM68 °FBroken clouds.5 mph88%29.89 "HgN/A
6:20 PM68 °FBroken clouds.6 mph94%29.89 "HgN/A
5:50 PM68 °FSprinkles. Broken clouds.6 mph94%29.89 "HgN/A
5:20 PM70 °FSprinkles. Broken clouds.6 mph88%29.89 "HgN/A
4:50 PM72 °FSprinkles. Broken clouds.5 mph78%29.89 "HgN/A
4:20 PM73 °FSprinkles. Broken clouds.9 mph74%29.89 "HgN/A
3:50 PM73 °FScattered showers. Broken clouds.10 mph69%29.89 "HgN/A
3:20 PM75 °FBroken clouds.8 mph65%29.89 "HgN/A
2:50 PM77 °FBroken clouds.7 mph65%29.89 "HgN/A
2:20 PM73 °FBroken clouds.7 mph65%29.89 "HgN/A
1:50 PM75 °FBroken clouds.5 mph65%29.89 "HgN/A
1:20 PM75 °FBroken clouds.3 mph61%29.89 "HgN/A
12:50 PM75 °FBroken clouds.5 mph61%29.89 "HgN/A
12:20 PM73 °FScattered clouds.3 mph65%29.89 "HgN/A
11:50 AM72 °FScattered clouds.3 mph69%29.89 "HgN/A
11:20 AM72 °FScattered clouds.2 mph73%29.89 "HgN/A
10:50 AM72 °FSunny.3 mph78%29.89 "Hg10 mi
10:20 AM68 °FPartly sunny.5 mph78%29.89 "HgN/A
9:50 AM66 °FBroken clouds.6 mph88%29.89 "HgN/A
9:20 AM66 °FBroken clouds.3 mph83%29.89 "HgN/A
8:50 AM63 °FBroken clouds.3 mph94%29.86 "HgN/A
8:20 AM63 °FSunny.3 mph94%29.86 "Hg10 mi
7:50 AM63 °FPassing clouds.5 mph94%29.86 "HgN/A
7:20 AM63 °FPassing clouds.2 mph94%29.86 "HgN/A
6:50 AM63 °FPassing clouds.3 mph94%29.83 "HgN/A
6:20 AM63 °FSprinkles. Passing clouds.3 mph94%29.83 "HgN/A
Weather by CustomWeather, © 2014

See weather overviewHow to use our weather pages